Home > Weather > Bukoba > Past weeks

Flag for Tanzania Past Weather in Bukoba, Tanzania — Yesterday and Last 2 Weeks

Now
68 °F

Passing clouds.


Feels Like: 68 °F
Forecast: 63 / 81 °F
Wind: 16 mph from North

Location: Entebbe Airport

Current Time: Jul 28, 2016 at 4:01:42 AM

Latest Report: Jul 28, 2016 at 3:00 AM


Visibility: 5 mi

Pressure: 30.04 "Hg (26.26 "Hg at 1153m altitude)

Humidity: 83%

Dew Point: 63 °F

Location of BukobaLocation

Past Weather in Bukoba — Graph

°F

Bukoba Temperature Yesterday

Maximum temperature yesterday: 81 °F (at 1:00 PM)
Minimum temperature yesterday: 66 °F (at 5:00 AM)
Average temperature yesterday: 73 °F

High & Low Weather Summary for the Past Weeks

 TemperatureHumidityPressure
High84 °F (Jul 16, 1:00 AM)100% (Jul 17, 6:00 AM)30.15 "Hg (Jul 17, 6:00 AM)
Low64 °F (Jul 15, 6:00 AM)48% (Jul 27, 4:00 PM)29.98 "Hg (Jul 24, 4:00 PM)
Average72 °F78%30.06 "Hg
* Reported Jul 13 2:00 AM — Jul 28 2:00 AM, Bukoba, Weather by CustomWeather, © 2016

Note: Actual official high and low records may vary slightly from our data, if they occured in-between our weather recording intervals... More about our weather records

Advertising

Bukoba Weather History for the Previous 24 Hours

Scroll right to see more
 ConditionsComfort  
Time TempWeatherWind HumidityBarometerVisibility
2:00 AM
Thu, Jul 28
68 °FPartly cloudy.14 mph83%30.04 "Hg6 mi
12:00 AM68 °FPartly cloudy.12 mph88%30.07 "HgN/A
11:00 PM
Wed, Jul 27
72 °FPartly cloudy.5 mph83%30.07 "HgN/A
10:00 PM73 °FMild.5 mph78%30.04 "HgN/A
9:00 PM73 °FPassing clouds.6 mph78%30.04 "Hg6 mi
5:00 PM79 °FPassing clouds.13 mph54%30.01 "HgN/A
4:00 PM81 °FPassing clouds.10 mph48%30.01 "HgN/A
3:00 PM81 °FPartly sunny.9 mph51%30.04 "Hg6 mi
2:00 PM81 °FPassing clouds.13 mph51%30.07 "Hg6 mi
1:00 PM81 °FPassing clouds.7 mph51%30.07 "Hg6 mi
12:00 PM79 °FPassing clouds.7 mph58%30.09 "Hg5 mi
11:00 AM79 °FPassing clouds.6 mph58%30.09 "Hg5 mi
10:00 AM75 °FPartly sunny.5 mph69%30.09 "Hg5 mi
9:00 AM70 °FPassing clouds.6 mph78%30.09 "Hg5 mi
8:00 AM66 °FScattered clouds.6 mph88%30.07 "Hg5 mi
7:00 AM66 °FScattered clouds.6 mph94%30.07 "Hg6 mi
6:00 AM68 °FPassing clouds.6 mph78%30.04 "Hg6 mi
5:00 AM66 °FPassing clouds.7 mph83%30.04 "Hg6 mi
4:00 AM68 °FPassing clouds.5 mph88%30.01 "HgN/A
Weather by CustomWeather, © 2016

See weather overviewHow to use our weather pages